Location: *
(34.0486°S, 61.7880°E)
Time: 16:57:09
(UTC+00:00)

Cosmos 1844 Rocket - Pass Details

Date: 01 April 2020
Orbit: 824 x 845 km, 71.0° (Epoch: 26 May)

Event Time Altitude Azimuth Distance (km) Brightness Sun altitude
Rises 14:42:59 0° 342° (NNW) 3,372 6.0 -12.3°
Reaches altitude 10° 14:45:25 10° 342° (NNW) 2,442 5.3 -12.8°
Maximum altitude 14:51:02 88° 69° (ENE) 844 2.7 -14.0°
Drops below altitude 10° 14:56:41 10° 159° (SSE) 2,458 4.9 -15.2°
Sets 14:59:08 0° 158° (SSE) 3,396 5.7 -15.7°
